Location: Asheville, NC
(35.6000°N, 82.5500°W)
Time: 03:29:57
(UTC-04:00)

Oscar 11 - Pass Details

Date: 13 March 2018
Orbit: 613 x 627 km, 97.6° (Epoch: 19 June)

Event Time Altitude Azimuth Distance (km) Brightness Sun altitude
Exits shadow 20:06:07 - 115° (ESE) 2,276 9.4 -6.9°
Reaches altitude 10° 20:07:15 10° 105° (ESE) 1,964 9.0 -7.2°
Maximum altitude 20:09:48 16° 68° (ENE) 1,623 8.7 -7.7°
Drops below altitude 10° 20:12:22 10° 31° (NNE) 1,972 9.4 -8.2°
Sets 20:15:17 0° 9° (N) 2,883 10.4 -8.8°
